User: anonymous
Location: Bismarck
(46.7731°N, 100.8200°W)
Time: 04:06:57
(UTC-05:00)
Language:

Cosmos 1125 Rocket - Orbit

View from above orbital plane
View from above orbital plane
View from above satellite
View from above satellite

Ground track
Ground track

The orbit data is extracted from the following two-line orbital elements,

1 11511U 79078B   14109.48484804  .00000425  00000-0  15402-3 0  7685
2 11511 074.0365 277.1622 0014822 082.2294 336.6448 14.36389091812815
Epoch (UTC): 19 April 2014 11:38:10
Eccentricity: 0.0014822
inclination: 74.0365°
perigee height: 760 km
apogee height: 781 km
right ascension of ascending node: 277.1622°
argument of perigee: 82.2294°
revolutions per day: 14.36389091
mean anomaly at epoch: 336.6448°
orbit number at epoch: 81281

The dashed part of the orbit path shows where the satellite is in the earth's shadow,  

DLR